Regional Weather Roundup
Issued by NWS

Home | Current Version | Previous Version | Text Only | Print | Product List | Glossary Off
Versions: 1 2 3 4 5 6 7 8 9 10 11 12 13 14 15 16 17 18 19 20 21 22 23 24 25 26 27 28 29 30 31 32 33 34 35 36 37 38 39 40 41 42 43 44 45 46 47 48 49 50

809
ASUS45 KSLC 202010
RWRUT

UTAH REGIONAL WEATHER ROUNDUP
NATIONAL WEATHER SERVICE SALT LAKE CITY UT
100 PM MST FRI JAN 20 2017

UTZ001>011-023>025-202100-

NORTHERN UTAH

CITY           SKY/WX    TMP DP  RH WIND       PRES   REMARKS
BRIGHAM CITY     N/A     32  29  88 N3        29.51F
HILL AFB       PTSUNNY   33  30  89 S5        29.48F FOG     WCI  28
LOGAN          CLOUDY    30  28  92 NW3       29.50F FOG
OGDEN          PTSUNNY   34  31  88 SE6       29.49F WCI  29
SALT LAKE CITY PTSUNNY   39  32  76 S13       29.49F WCI  31
TOOELE VALLEY  PTSUNNY   32  32 100 N9        29.49F FOG     WCI  24
WENDOVER       CLOUDY    25  21  86 CALM      29.49F
HEBER CITY     CLOUDY    34  27  75 W6        29.47F WCI  29
WEST JORDAN    MOSUNNY   37  37 100 SE18      29.49F WCI  26

$$

UTZ011>015-024>027-202100-

CENTRAL/NORTHEAST UTAH

CITY           SKY/WX    TMP DP  RH WIND       PRES   REMARKS
PROVO AIRPORT  PTSUNNY   34  30  86 VRB3      29.52F
MOAB/CANYONLAN PTSUNNY   33  32  96 NW7       29.57F WCI  27
DELTA          PTSUNNY   32  30  93 CALM      29.49F
PRICE          CLOUDY    25  24  96 E5        29.55F WCI  19
RICHFIELD      PTSUNNY   39  28  65 N3        29.51F
ROOSEVELT      CLOUDY    27  18  69 E3        29.61F
VERNAL         CLOUDY    21  16  81 CALM      29.58F

$$

UTZ013>016-019>022-027-202100-

SOUTHERN UTAH

CITY           SKY/WX    TMP DP  RH WIND       PRES   REMARKS
BRYCE CANYON   SNOW      26  23  88 SE15      29.52F VSB 1/4 WCI  14
CEDAR CITY     CLOUDY    32  30  92 SW9       29.46F WCI  24
MILFORD        FLURRIES  35  30  82 SW12      29.47F WCI  27
ST GEORGE      CLOUDY    39  36  87 CALM      29.57F
HANKSVILLE     CLOUDY    36  34  93 MISG      29.60F
KANAB          FOG       34  34 100 CALM      29.61F VSB 1/2
BLANDING       CLOUDY    33  29  85 CALM      29.70F

$$

REGIONAL REPORTS     COLORADO/ARIZONA

CITY           SKY/WX    TMP DP  RH WIND       PRES   REMARKS
CRAIG, CO      CLOUDY    29  24  82 SW6       29.53F WCI  23
GRAND JUNCTION CLOUDY    36  34  92 NW8       29.57F WCI  30
RIFLE, CO      CLOUDY    37  30  75 W18G25    29.53F WCI  27
MONTROSE, CO   CLOUDY    38  24  57 N5        29.58F WCI  34
CORTEZ, CO     FLURRIES  34  29  82 S9        29.65F WCI  27
COLORADO CITY  LGT SNOW  34  34 100 E9        29.59F VSB 1   WCI  26
PAGE, AZ       CLOUDY    41  30  65 CALM      29.58F
GRAND CANYON   SNOW      30  28  92 S10G24    29.60F VSB 1/2 WCI  21
KINGMAN, AZ    CLOUDY    44  36  73 S17       29.59F
FLAGSTAFF, AZ  SNOW      29  27  92 SW20G28   29.61F VSB 1/4 WCI  16

$$

REGIONAL REPORTS    NEVADA/IDAHO/WYOMING

CITY           SKY/WX    TMP DP  RH WIND       PRES   REMARKS
LAS VEGAS, NV  LGT RAIN  46  39  76 S10G20    29.50F
ELY, NY        FLURRIES  30  25  81 SE23G30   29.36F WCI  17
ELKO, NV       FLURRIES  32  23  69 NE8       29.34F WCI  25
POCATELLO, ID  MOSUNNY   35  25  66 CALM      29.47F
BURLEY, ID     CLOUDY    36  24  62 W3        29.41F
FORT BRIDGER,    N/A     30  21  69 E5        29.49F WCI  25
EVANSTON, WY   SUNNY     25  17  72 CALM      29.45F
ROCK SPRINGS,  CLOUDY    23  18  81 CALM      29.49F HAZE
KEMMERER, WY     N/A    N/A N/A N/A CALM      29.47F

$$




USA.gov is the U.S. government's official web portal to all federal, state and local government web resources and services.